Regional Weather Roundup
Issued by NWS

Home | Current Version | Previous Version | Text Only | Print | Product List | Glossary Off
Versions: 1 2 3 4 5 6 7 8 9 10 11 12 13 14 15 16 17 18 19 20 21 22 23 24 25 26 27 28 29 30 31 32 33 34 35 36 37 38 39 40 41 42 43 44 45 46 47 48 49 50

000
ASUS43 KFSD 210110
RWRSD

WEATHER ROUNDUP FOR SOUTH DAKOTA
NATIONAL WEATHER SERVICE SIOUX FALLS SD
800 PM CDT SAT SEP 20 2014

NOTE: "FAIR" INDICATES FEW OR NO CLOUDS BELOW 12,000 FEET WITH NO
SIGNIFICANT WEATHER AND/OR OBSTRUCTIONS TO VISIBILITY.


SDZ001>005-009-010-012>017-210200-
NORTHWEST AND NORTH CENTRAL SOUTH DAKOTA

CITY           SKY/WX    TMP DP  RH WIND       PRES   REMARKS
BUFFALO          N/A     65  35  33 NW17      30.12R
FAITH            N/A     63  35  35 NW13      30.13R
MOBRIDGE       PTCLDY    62  45  53 N9        30.04R
$$

SDZ012>016-024>037-041>051-057-063-072>074-210200-
SOUTHWEST AND SOUTH CENTRAL SOUTH DAKOTA

CITY           SKY/WX    TMP DP  RH WIND       PRES   REMARKS
RAPID CTY ARPT CLEAR     65  40  39 N9        30.20R
PIERRE         CLEAR     63  36  36 NW8       30.05R
CUSTER         CLEAR     60  33  36 N6        30.30R
ELLSWORTH AFB  CLEAR     68  41  37 N8        30.20R
PHILIP         CLEAR     65  38  36 N8        30.13R
PINE RIDGE     CLEAR     65  40  39 N6        30.20R
WINNER         FAIR      67  39  35 NW12      30.08R
$$

SDZ004>011-016>023-039-040-210200-
NORTHEAST SOUTH DAKOTA

CITY           SKY/WX    TMP DP  RH WIND       PRES   REMARKS
ABERDEEN       CLEAR     64  44  48 W13       29.99R
WATERTOWN      PTCLDY    60  45  57 W8        29.97R
SISSETON         N/A     60  49  66 NW8       29.91R
$$

SDZ017-020-022-023-036>040-048>070-210200-
SOUTHEAST SOUTH DAKOTA

CITY           SKY/WX    TMP DP  RH WIND       PRES   REMARKS
SIOUX FALLS    PTCLDY    68  47  46 NW14G24   29.98R
HURON          PTCLDY    66  42  41 NW10      30.00R
CHAMBERLAIN    CLEAR     67  40  37 NW7       30.05R
MITCHELL       PTCLDY    68  44  42 N10       30.01R
YANKTON        CLEAR     72  48  43 NW14G24   29.98R
$$

ABBREVIATIONS USED IN REMARKS
   TC - TEMPERATURE IN CELSIUS
  WCI - WIND CHILL INDEX
   HX - HEAT INDEX
  VSB - VISIBILITY




USA.gov is the U.S. government's official web portal to all federal, state and local government web resources and services.